Wind_Speed
19 25 23 20 19 17 16 15 15 13 11 11 10 9 9 8 8 9 10 12 15 15 13 12 12 12 12 14 15 15 15 15 15 14 13 13 12 10 10 14 13 10 10
30 26 23 21 19 18 17 16 14 13 13 10 11 8 9 9 10 11 11 16 14 14 13 11 11 11 12 13 14 15 15 15 15 15 13 12 11 10 9 9 10 9 9
31 27 24 21 20 18 17 17 16 16 12 12 9 6 9 11 10 13 12 16 14 13 12 11 11 11 12 13 14 13 12 13 14 14 12 9 8 8 9 8 5 4 4
29 27 24 22 21 19 18 18 17 14 11 7 7 8 11 10 12 13 11 15 13 12 10 10 11 11 12 14 12 11 10 9 10 11 10 9 7 8 8 9 8 4 4
30 27 24 22 21 20 20 19 16 12 9 7 8 11 12 12 13 13 13 15 11 9 8 11 12 13 14 14 12 10 8 9 8 9 9 11 11 9 8 9 15 16 12
29 26 22 22 20 20 21 18 14 10 7 6 10 15 13 14 14 13 12 10 10 8 7 11 12 13 14 13 9 8 8 9 9 9 9 8 13 12 11 10 9 12 12
30 25 22 20 19 21 20 18 14 10 7 8 10 14 14 13 14 16 13 11 10 7 6 10 11 12 13 11 8 7 7 9 8 7 4 6 8 7 5 6 4 3 5
30 26 22 20 19 20 19 16 13 9 8 7 10 11 12 11 12 12 11 10 8 6 6 8 9 9 10 10 7 6 5 6 6 4 3 6 6 5 4 3 1 1 2
28 26 22 19 19 20 18 15 13 10 8 8 11 15 13 11 10 9 9 8 7 6 6 7 7 7 8 8 7 4 3 7 4 3 4 6 6 4 4 4 4 4 4
25 23 23 22 21 20 18 15 14 11 8 7 11 14 15 13 13 11 10 8 6 6 6 6 5 5 5 7 7 5 3 7 6 4 5 6 6 4 3 4 4 4 4
24 23 23 23 22 18 17 16 15 13 11 8 10 11 13 12 13 12 11 11 9 8 8 7 5 5 5 6 7 7 6 5 6 6 5 6 5 5 4 3 5 5 5
23 23 23 23 22 19 17 18 19 17 15 13 11 11 11 10 11 12 11 11 10 10 9 8 6 6 7 7 8 9 8 6 7 7 7 8 6 5 5 4 4 5 5
24 23 24 23 22 21 20 20 20 19 18 16 14 12 11 11 11 12 11 12 12 11 11 10 10 9 8 8 9 10 10 9 8 9 10 11 9 7 6 6 5 5 5
24 23 23 23 23 22 21 21 21 20 20 19 17 15 14 13 13 13 13 13 13 12 13 13 13 11 11 11 10 11 12 12 11 12 12 13 12 9 8 8 8 7 6
23 22 22 24 25 25 24 22 22 22 22 21 20 19 18 16 14 15 15 15 15 14 15 15 15 15 15 14 15 15 15 15 14 13 15 16 15 13 10 9 9 9 8
24 23 21 25 25 25 25 22 21 20 19 20 20 20 20 19 18 18 19 19 19 18 16 16 17 18 18 17 18 19 17 18 17 17 17 17 18 17 14 11 11 11 11
24 23 23 21 28 29 27 25 23 21 19 18 18 18 20 21 21 23 22 23 23 22 21 20 19 20 20 20 21 19 20 20 21 21 19 18 19 20 19 15 13 13 13
19 22 25 23 21 29 30 29 28 25 22 20 20 20 21 23 24 25 27 27 25 25 26 26 24 23 24 24 24 24 25 24 23 23 23 21 22 23 22 21 17 16 16
21 21 21 22 23 22 26 28 28 26 24 23 23 24 26 26 27 28 29 29 27 27 29 30 29 27 28 29 29 29 29 30 28 26 26 25 24 26 27 25 23 20 20
16 18 22 23 20 21 24 23 23 23 24 23 22 22 21 27 28 29 31 31 29 28 29 30 30 30 31 31 30 32 31 31 30 30 29 28 28 28 29 29 27 25 23
9 12 14 14 20 23 21 20 23 25 26 27 30 28 26 23 24 26 30 30 30 29 28 29 30 30 31 30 25 23 29 31 32 33 32 31 32 31 32 32 31 28 26
10 9 9 8 8 10 16 20 19 18 21 24 24 24 24 28 27 28 30 31 30 29 29 30 31 30 28 28 13 5 3 9 23 33 34 35 36 34 34 34 34 33 30
9 6 4 3 4 5 5 7 10 11 11 13 14 14 14 15 18 21 23 25 24 23 25 26 28 31 24 22 23 13 2 4 3 9 20 30 38 37 36 34 34 35 34
8 6 6 5 3 4 4 6 8 11 12 13 13 15 15 14 15 16 19 21 24 25 25 26 25 26 27 22 20 26 29 12 3 4 8 13 16 26 35 35 34 34 37
10 8 6 6 6 5 3 2 3 4 4 6 7 10 13 15 17 14 15 18 21 23 24 23 21 21 21 22 22 17 21 22 17 4 9 7 16 17 19 27 33 34 34
9 8 7 6 4 3 2 2 0 2 3 4 4 5 6 5 5 8 9 10 15 18 20 21 20 20 20 19 18 20 20 10 7 10 6 9 10 20 24 24 24 30 30
Wind_Direction
173 161 165 159 153 152 149 147 146 144 139 132 121 113 108 103 103 109 112 107 110 105 104 102 100 98 93 92 93 92 91 88 84 83 87 83 89 79 82 76 105 104 103
162 160 163 161 154 153 152 149 146 141 135 122 118 119 115 109 107 117 106 124 110 108 105 104 105 103 100 101 103 99 93 87 81 79 78 82 85 83 89 93 91 86 84
159 161 161 159 155 153 151 146 141 135 132 132 135 160 120 118 115 124 117 121 116 110 106 105 107 111 107 107 108 102 96 91 88 79 75 76 85 84 79 76 88 88 86
161 161 160 160 155 153 150 142 141 137 141 154 166 138 123 125 130 130 130 129 123 115 106 110 113 115 118 118 110 105 99 103 94 78 73 71 116 102 81 71 45 58 139
159 161 160 161 156 155 149 147 149 156 169 169 142 131 111 129 143 139 138 140 133 120 107 117 120 124 128 125 119 114 110 109 115 96 85 75 102 107 96 82 61 66 109
159 159 165 162 160 157 155 156 167 168 182 156 143 137 129 139 145 141 143 154 144 134 117 124 127 132 137 135 129 117 120 128 123 106 94 99 91 95 93 86 77 74 83
157 157 167 170 165 165 166 168 175 178 163 153 145 150 151 147 150 149 154 157 151 144 132 136 135 138 146 146 140 121 124 145 135 119 107 123 106 99 95 89 111 95 72
158 161 169 173 171 172 174 173 179 172 157 152 155 159 163 162 155 158 162 156 159 157 151 149 147 146 153 159 156 144 135 167 155 139 121 136 132 106 88 105 98 69 80
164 168 174 177 176 176 179 180 176 166 166 164 169 168 172 179 170 163 173 172 173 174 166 165 164 164 168 176 175 180 190 188 195 164 145 150 138 117 98 77 71 80 89
173 178 179 176 177 180 183 186 181 177 175 179 178 178 183 183 182 184 186 184 185 186 180 181 188 192 191 192 193 198 193 188 210 198 181 172 158 155 142 118 103 99 95
173 180 179 178 176 186 190 191 188 188 196 192 186 188 193 194 187 188 190 192 197 195 195 196 205 218 219 210 207 210 214 226 223 216 211 193 186 181 169 154 139 127 119
178 184 185 183 183 193 201 195 195 199 201 200 198 198 200 198 197 195 195 200 202 199 205 209 219 230 230 224 220 221 226 243 241 237 231 209 210 203 198 193 169 154 143
185 188 191 192 191 199 206 202 201 206 207 209 210 211 206 206 205 206 207 209 210 213 218 222 227 233 235 233 229 230 234 247 255 242 231 221 220 217 216 201 189 177 165
190 193 195 198 199 206 210 207 210 212 215 217 221 219 215 215 217 216 217 218 223 227 235 236 238 242 244 242 234 234 241 251 251 245 239 227 235 221 218 212 201 194 192
197 199 200 202 207 210 212 217 219 223 224 227 225 227 225 226 227 224 229 229 232 236 243 245 248 248 250 250 245 245 248 255 256 251 248 238 238 241 233 216 210 206 203
204 206 207 211 214 216 218 218 220 222 229 231 232 232 231 233 236 237 239 241 242 243 249 255 258 259 259 256 256 251 255 257 263 260 252 247 243 245 248 231 220 215 213
209 208 210 217 220 219 221 223 225 225 228 229 232 232 234 238 241 242 246 248 251 251 251 253 255 258 258 255 255 253 257 259 263 263 261 253 248 245 250 247 230 224 221
217 214 218 218 223 221 223 226 227 227 230 232 234 237 239 242 246 247 248 251 253 253 251 252 254 256 256 256 258 258 259 259 260 258 261 256 250 245 246 248 245 232 227
224 224 224 218 221 223 225 230 231 230 233 238 243 245 244 246 248 249 252 255 256 257 251 251 253 253 257 261 261 263 260 256 256 259 259 259 253 248 243 247 247 245 231
224 229 232 230 225 225 225 223 226 231 236 239 241 248 254 247 248 251 252 255 258 258 256 253 253 258 257 263 266 266 265 254 253 252 256 258 257 251 246 243 244 243 240
185 201 207 219 227 231 228 227 232 236 241 246 246 247 249 249 251 251 251 254 256 258 260 262 260 258 259 255 260 268 269 262 256 253 252 254 256 254 249 246 242 243 241
139 140 154 173 192 217 227 234 240 246 249 254 258 258 260 256 258 255 256 261 265 262 262 260 259 256 259 258 243 250 302 283 256 254 254 253 254 254 253 248 245 241 239
137 136 148 168 189 204 215 223 231 240 248 253 259 265 266 268 268 267 266 265 263 263 263 265 264 261 253 257 252 231 249 233 320 257 259 257 255 253 253 253 250 247 241
147 140 135 128 142 205 223 234 238 247 254 258 264 267 269 275 277 274 270 268 266 262 266 269 269 264 261 249 252 244 240 249 230 308 260 271 272 259 254 256 255 253 247
145 141 135 128 110 101 118 161 225 243 250 264 269 269 269 269 270 275 273 268 265 263 265 269 269 265 262 259 249 247 246 247 253 240 284 256 267 273 272 267 262 260 255
137 133 131 132 105 102 99 87 37 285 286 288 292 293 299 305 290 270 278 289 270 265 262 262 267 268 264 266 262 256 256 235 219 220 249 272 253 276 276 274 259 255 258
Height
803 806 809 812 814 817 819 821 822 823 825 825 826 827 829 829 830 830 831 832 833 834 835 835 835 835 835 836 835 835 836 836 835 835 834 835 835 835 835 834 834 834 834
801 806 810 813 815 818 820 822 824 825 826 826 827 829 830 830 831 832 833 834 835 836 836 836 836 836 837 837 837 838 838 838 838 838 838 837 837 837 837 836 837 837 836
802 807 811 814 816 819 821 823 825 826 828 827 830 830 830 831 832 834 835 836 837 838 838 837 837 838 839 839 840 840 841 841 841 841 840 840 840 840 839 838 838 839 838
803 808 812 815 817 819 822 824 826 828 829 830 831 830 831 832 834 836 837 838 839 839 838 838 839 839 840 841 842 842 842 843 843 843 843 842 841 842 842 841 840 838 838
805 808 812 816 818 821 823 826 828 829 830 832 831 831 833 834 836 837 838 839 839 840 840 840 840 841 841 843 843 843 844 844 844 845 845 844 843 844 844 843 842 840 841
805 810 814 817 820 822 824 827 829 830 832 831 831 833 836 837 838 838 839 840 840 841 841 841 842 843 844 844 845 845 845 845 846 846 846 846 846 845 846 845 844 844 843
807 812 815 817 821 823 825 827 830 831 831 832 833 836 838 839 839 840 841 841 842 843 843 844 845 845 846 846 847 847 847 847 847 847 847 847 847 848 847 846 846 846 845
808 813 817 819 821 823 826 828 830 831 832 832 835 838 839 840 841 841 842 842 844 844 845 846 847 847 848 849 849 849 850 850 849 849 849 849 849 848 848 847 847 847 847
811 813 817 820 822 824 827 828 830 831 832 834 835 837 840 841 841 842 843 844 845 845 846 847 848 849 849 850 850 850 851 851 851 850 850 850 850 851 850 849 848 848 847
812 815 817 819 822 825 827 829 831 832 833 835 836 837 839 839 840 842 843 844 845 846 847 848 849 850 850 851 851 851 852 852 852 851 851 851 852 851 851 850 850 849 849
812 815 817 820 822 825 827 829 831 833 835 836 837 838 840 839 840 841 842 844 845 846 848 848 850 851 851 851 851 852 852 853 853 852 852 853 853 853 852 851 850 850 850
812 815 817 820 822 825 827 829 831 833 835 836 837 838 839 840 840 842 843 844 845 846 847 848 850 850 851 851 852 852 853 853 853 854 854 854 854 854 853 852 851 850 850
812 815 817 820 823 824 826 828 831 832 834 835 837 838 839 839 841 842 842 844 845 846 847 848 849 849 850 850 851 851 852 853 853 852 853 853 853 853 854 853 852 852 850
812 814 817 820 822 824 826 828 829 831 833 834 835 836 837 838 839 840 841 842 843 844 846 846 847 848 849 849 849 850 850 851 851 851 850 851 852 852 852 852 852 851 851
812 814 816 818 821 823 824 826 828 829 831 832 834 835 836 837 838 839 840 841 842 843 844 845 846 846 847 848 848 849 848 848 849 849 850 850 850 851 851 851 852 852 852
810 812 815 817 819 821 822 824 825 827 829 831 832 833 834 835 836 837 839 840 841 842 843 843 844 844 845 846 846 847 847 847 847 847 848 849 850 850 851 851 850 850 850
808 810 812 814 816 818 820 822 824 825 827 828 829 830 831 833 834 836 837 837 838 839 841 841 842 842 843 843 843 844 844 845 844 844 845 846 847 848 849 850 850 850 850
807 808 810 811 812 814 817 819 821 823 824 825 826 828 829 830 831 833 833 833 836 837 838 838 839 839 839 840 840 840 840 841 841 841 841 842 843 844 845 847 848 849 849
804 806 808 809 810 812 814 816 818 821 821 823 824 825 826 827 828 829 829 829 831 832 833 834 834 835 835 835 836 835 836 836 836 837 836 837 838 838 839 841 843 843 845
801 802 804 806 808 811 812 814 816 818 819 820 820 821 822 823 824 825 826 826 827 828 829 829 830 830 831 830 831 830 830 831 832 831 831 832 831 832 834 835 838 839 841
799 800 801 803 804 807 809 811 812 813 815 816 817 818 819 820 821 821 822 822 823 824 825 826 826 826 826 826 827 825 824 825 825 825 826 827 826 827 829 831 833 836 838
798 799 801 801 802 804 805 807 808 810 810 811 812 813 814 815 816 817 817 818 819 819 820 820 821 821 821 822 824 826 823 820 817 818 820 820 820 821 823 824 826 829 832
798 799 800 801 802 803 804 804 805 806 807 807 808 809 810 810 811 811 812 812 813 814 814 815 816 816 816 817 819 823 824 820 816 812 813 814 814 815 816 819 821 824 827
797 800 801 802 803 803 803 803 804 804 804 805 805 805 805 806 807 807 807 807 808 808 809 810 811 810 812 812 814 814 814 813 815 813 810 809 810 810 812 813 814 817 820
797 799 800 802 803 803 803 804 804 804 804 804 804 804 804 804 804 803 803 802 802 802 803 804 805 805 806 807 808 809 809 811 812 814 807 807 806 807 807 809 811 811 812
797 799 800 802 802 803 803 804 804 804 804 803 803 803 802 802 801 801 800 799 798 797 798 799 800 801 802 802 803 804 805 806 807 808 809 805 804 804 804 803 801 804 807